STARLINK-4421 (53488 NORAD) Tracking and Keplerian Element Data

This shows tracking and keplerian element data for the satellite.

Feedback or suggestion? Click here.




ElementValue
Catalog53488
NameSTARLINK-4421
Epoch Orbit1521
Epoch Day324.8231106
Epoch Year2022
RAAN83.887
Inclination97.6581
Eccentricity0.0002157
Argument of Perigee350.8212
Mean Anonmoly9.2973
Mean Motion15.01265167
Decay Rate2.96E-05
L11 53488U 22099Z 22324.82311060 .00002960 00000+0 23495-3 0 9996
L22 53488 97.6581 83.8870 0002157 350.8212 9.2973 15.01265167 15219



Live tracking and technical data element details for STARLINK-4421 (NORAD 53488). STARLINK-4421 can be tracked NOW for your location showing map with azimuth and elevation plus other details from your city location.







IsCatalogInMostPopularTable: catalog: 53488, numindb: 6
Update: records affected: 1



GetName: 53488 STARLINK-4421

Hit Count: updated at: Thu, 08 Dec 2022 18:53:03 GMT